Racecast

Tempyst Aikens

Ionia (MI) · 11 · Compare head to head

Athlete rating 91.2 2021 XC season
Best race 107.8 XC
Races 61
Seasons 5 2017 — 2021

RankedNation #107521·MI #4983·MI D2 #1813·Team #19 ?

Rating scale ?
Speed rating — all races

Cross Country

XC speed rating

2021 XC 86.9

Ionia (MI) · Grade 11

Date Meet Event Result Place Rating Difficulty PR/SR Flags
2021-10-29 St. Francis Retreat Center 5000m 28:18 80th · 5th on team 91.2 +0.027
2021-10-21 Portland HS 5000m 27:40.8 39th · 5th on team 92.5 +0.020 ★CR CSR RSR
2021-10-16 Ledge Meadows Golf Course 5000m 27:32.2 193rd · 4th on team 91.3 -0.008 SR CSR RSR
2021-10-05 St. Francis Retreat Center 5000m 28:17.3 36th · 4th on team 90.5 +0.027 SR CSR RSR
2021-10-02 Shepherd High School 5000m 28:30.3 98th · 4th on team 87.9 -0.006 SR CSR RSR
2021-09-25 Calvin College - Gainey Athletic Complex 5000m 29:57.3 78th · 5th on team 84.4 -0.002 ★CR CSR
2021-09-21 Burchfield Park 4908m 28:49.2 44th · 6th on team 83.8 -0.017 ★PR ★CR SR CSR
2021-09-11 Central Montcalm HS 5000m 29:31.9 19th · 3rd on team 87.5 +0.018 SR CSR RSR
2021-09-08 Uncle John's Cider Mill OFFICIAL 5000m 29:37.1 88th · 5th on team 85.4 +0.004 ★CR SR CSR RSR
2021-09-01 Saranac HS 5000m 31:03.5 96th · 6th on team 82.2 +0.013 SR CSR RSR
2021-08-24 St. Francis Retreat Center 3218m 20:07.4 78th · 2nd on team 79.3 +0.020 ★CR SR CSR RSR

2020 XC 90.8

Ionia (MI) · Grade 10

Date Meet Event Result Place Rating Difficulty PR/SR Flags
2020-10-10 Ledge Meadows Golf Course 5000m 26:25.6 47th · 6th on team 94.7 -0.008 ★CR SR CSR
2020-10-06 Ionia High School 5000m 27:36.8 33rd · 7th on team 95.0 +0.034 ★CR CSR RSR
2020-09-30 Shepherd High School 5000m 27:31.4 24th · 8th on team 90.2 -0.006 ★CR CSR
2020-09-22 St. Francis Retreat Center 5000m 27:37.9 37th · 8th on team 93.5 +0.027
2020-09-18 St. Francis Retreat Center 5000m 27:20 43rd · 8th on team 93.5 +0.027 ★CR SR CSR RSR
2020-09-12 Lightning Bend Park 5000m 28:14.3 46th · 8th on team 87.0 -0.009 ★CR SR CSR RSR
2020-09-10 Saranac HS 5000m 31:02 31st · 8th on team 81.5 +0.013 ★CR SR CSR RSR

2019 XC 97.8

Ionia (MI) · Grade 9

Date Meet Event Result Place Rating Difficulty PR/SR Flags
2019-10-17 Eaton Rapids HS 5000m 24:47.9 33rd · 9th on team 101.6 +0.015 ★CR CSR
2019-10-10 EL Soccer/XC Complex 5000m 23:54.6 18th · 1st on team 102.2 -0.026 ★PR ★CR SR CSR
2019-10-07 Haslett HS 5000m 24:18 39th · 10th on team 102.5 -0.007 PR ★CR SR CSR RSR
2019-09-28 Dewitt HS 5000m 26:41.2 78th · 2nd on team 92.8 -0.001 ★CR CSR
2019-09-17 Grand Woods Park OFFICIAL 5000m 25:58.7 36th · 10th on team 94.9 -0.000 PR ★CR SR CSR RSR
2019-09-07 Central Montcalm HS 5000m 27:16.7 16th · 5th on team 93.0 +0.018 PR ★CR SR CSR RSR

2018 XC 100.8

Ionia ms (MI) · Grade 8

Date Meet Event Result Place Rating Difficulty PR/SR Flags
2018-10-15 Dewitt HS 3218m 15:39.1 64th · 1st on team 107.5 -0.008 ★PR ★CR SR CSR
2018-10-11 Fitzgerald Park 3218m 15:53.5 17th · 1st on team 105.5 -0.018 PR ★CR SR CSR
2018-10-09 Rayner Park 3218m 16:16.4 49th · 8th on team 107.8 +0.024 PR ★CR ★R SR CSR RSR
2018-10-03 Grand Woods Park OFFICIAL 3218m 17:02.8 35th · 2nd on team 100.1 +0.009 CSR
2018-10-01 Waverly HS 3218m 16:27.1 32nd · 1st on team 103.1 +0.009 ★CR SR CSR RSR
2018-09-27 Ella Sharp Park OFFICIAL 3218m 16:41.4 36th · 7th on team 100.4 +0.004 ★CR SR CSR RSR
2018-09-17 Ionia High School 3218m 21:37.8 47th · 10th on team 83.3 +0.066 ★CR SR CSR
2018-09-13 Lakewood Middle School 3200m 17:15.9 20th · 9th on team 98.9 +0.033 ★PR ★CR SR CSR RSR

2017 XC 93.7

Ionia ms (MI) · Grade 7

Date Meet Event Result Place Rating Difficulty PR/SR Flags
2017-10-16 Dewitt HS 3218m 16:58.3 114th · 1st on team 97.7 -0.008 CR CSR
2017-10-12 Fitzgerald Park 3218m 16:17.5 38th · 1st on team 100.3 -0.018 PR CR SR CSR
2017-10-10 Rayner Park 3218m 16:27.5 89th · 8th on team 103.5 +0.024 CR R CSR RSR
2017-10-04 Grand Woods Park OFFICIAL 3218m 16:27.1 32nd · 1st on team 102.6 +0.009 PR ★CR R SR CSR RSR
2017-10-02 Waverly Middle School 3200m 18:01.2 41st · 5th on team 94.9 +0.019 PR ★CR R SR CSR RSR
2017-09-27 Ella Sharp Park OFFICIAL 3218m 19:28 62nd · 6th on team 62.9 +0.004 PR CR SR CSR
2017-09-13 Lakewood Middle School 3000m 18:28.5 34th · 9th on team 93.8 +0.131 ★PR ★CR R SR CSR RSR

Track & Field

TF speed rating

2019 TF 100.1

Ionia ms (MI) · Grade 8

Date Meet Event Result Place Rating Difficulty PR/SR Flags
2019-05-23 Mason vs Ionia lj 9-05.00 -0.029
2019-05-23 Mason vs Ionia 100m 17.45 39th · 11th on team -0.029 ★PR SR
2019-05-23 Mason vs Ionia 200m 37.23 13th · 7th on team -0.029 ★PR SR
2019-05-15 DeWitt @ Ionia lj 9-03.00 -0.016
2019-05-15 DeWitt @ Ionia 100m 17.71 20th · 12th on team -0.016 PR SR
2019-05-15 DeWitt @ Ionia 400m 1:25.67 9th · 2nd on team -0.016
2019-05-13 Ionia MS vs. St. Johns MS lj ND -0.013
2019-05-13 Ionia MS vs. St. Johns MS 400m 1:25.47 14th · 2nd on team -0.013 ★PR SR
2019-05-08 Portland MS at Ionia MS lj 9-07.50 -0.016
2019-05-08 Portland MS at Ionia MS 100m 18.24 26th · 13th on team -0.016 SR
2019-05-08 Portland MS at Ionia MS 800m 3:26.68 9th · 3rd on team 100.1 -0.016 ★PR SR RSR
2019-04-22 Waverly MS @ Ionia MS lj 9-02.50 -0.016
2019-04-22 Waverly MS @ Ionia MS 70m 13.04 24th · 9th on team -0.016 SR

2018 TF

Ionia ms (MI) · Grade 7

Date Meet Event Result Place Rating Difficulty PR/SR Flags
2018-05-16 Ionia at Dewitt MS 200m 41.62 18th · 11th on team -0.027
2018-05-16 Ionia at Dewitt MS 400m 1:31.18 22nd · 14th on team -0.027 PR SR
2018-05-16 Ionia at Dewitt MS 70m 13.5 30th · 10th on team -0.027
2018-05-09 Ionia @ Grand Ledge 100m 18.14 28th · 16th on team -0.026 PR SR
2018-05-09 Ionia @ Grand Ledge 200m 37.64 18th · 7th on team -0.026 PR SR
2018-05-09 Ionia @ Grand Ledge 70m 13.14 23rd · 12th on team -0.026
2018-04-18 Portland@Ionia 100m 18.33 20th · 11th on team -0.016 PR SR
2018-04-18 Portland@Ionia 70m 12.96 25th · 14th on team -0.016 ★PR SR
2018-04-18 Portland@Ionia 55mh 16.42 12th · 9th on team -0.016 ★PR SR